La Paz, Mexico

8:03 AM MDT on May 25, 2017 (GMT -0600)
Gen Manuel Marquez De Leon

Weather History for MMLP - January, 2013

Change the Weather History Date:

Wednesday, January 9, 2013

  Actual Average Record
Temperature  
Mean Temperature 64 °F -  
Max Temperature 75 °F 75 °F 86 °F (2015)
Min Temperature 54 °F 52 °F 41 °F (2000)
Growing Degree Days 14 (Base 50)    
Moisture  
Dew Point 51 °F    
Average Humidity 56    
Maximum Humidity 77    
Minimum Humidity 38    
Precipitation  
Precipitation 0.00 in - - ()
Sea Level Pressure  
Sea Level Pressure 30.06 in    
Wind  
Wind Speed 8 mph ()    
Max Wind Speed 17 mph    
Max Gust Speed -    
Visibility 11.2 miles    
Events      
Averages and records for this station are not official NWS values.
T = Trace of Precipitation, MM = Missing Value Source: Averaged Metar Reports

Daily Weather History Graph

Daily Weather History Graph

Search for Another Location

Airport or City:

Trip Planner

Search our weather history database for the weather conditions in past years. The results will help you decide how hot, cold, wet, or windy it might be!

Date:

Astronomy

Jan. 09, 2013 Rise Set
Actual Time 7:06 AM MST 5:51 PM MST
Civil Twilight 6:41 AM MST 6:15 PM MST
Nautical Twilight 6:13 AM MST 6:43 PM MST
Astronomical Twilight 5:46 AM MST 7:11 PM MST
Moon 4:48 AM MST (1/9) 3:56 PM MST (1/9)
Length of Visible Light 11h 34m
Length of Day
10h 45m
Waning Crescent, 6% of the Moon is Illuminated
Jan 9
Waning Crescent
Jan 11
New
Jan 18
First Quarter
Jan 26
Full
Feb 3
Last Quarter

Hourly Weather History & Observations

Time (MST) Temp. Dew Point Humidity Pressure Visibility Wind Dir Wind Speed Gust Speed Precip Events Conditions
1:50 AM 57 °F 46 °F 57% 30.06 in 2 mi ENE 2.2 mph - -  
6:15 AM 60.8 °F 50.0 °F 68% 30.06 in 10.0 mi NNE 11.5 mph - N/A   Clear
6:43 AM 60.8 °F 50.0 °F 68% 30.06 in 10.0 mi NNE 11.5 mph - N/A   Clear
7:50 AM 63 °F 53 °F 60% 30.07 in 16 mi NNE 6.7 mph - -  
7:50 AM 62.6 °F 51.8 °F 68% 30.13 in 10.0 mi NNE 6.9 mph - N/A   Clear
8:45 AM 68.0 °F 50.0 °F 52% 30.09 in 10.0 mi NNE 11.5 mph - N/A   Clear
9:46 AM 69.8 °F 46.4 °F 43% 30.11 in 10.0 mi North 13.8 mph - N/A   Clear
10:42 AM 71.6 °F 48.2 °F 43% 30.14 in 10.0 mi North 13.8 mph - N/A   Clear
10:50 AM 73 °F 53 °F 38% 30.09 in 19 mi NNE 4.5 mph - -  
11:40 AM 71.6 °F 50.0 °F 46% 30.07 in 10.0 mi North 13.8 mph - N/A   Clear
12:44 PM 71.6 °F 46.4 °F 41% 30.03 in 10.0 mi North 17.3 mph - N/A   Clear
1:46 PM 71.6 °F 48.2 °F 43% 30.07 in 13.0 mi North 13.8 mph - N/A   Scattered Clouds
1:50 PM 74 °F 53 °F 38% 30.03 in 19 mi NNE 4.5 mph - -   Clear
2:49 PM 71.6 °F 51.8 °F 50% 30.02 in 13.0 mi North 11.5 mph - N/A   Mostly Cloudy
3:40 PM 69.8 °F 51.8 °F 53% 30.01 in 13.0 mi NNW 10.4 mph - N/A   Mostly Cloudy
4:40 PM 69.8 °F 53.6 °F 56% 30.07 in 13.0 mi North 12.7 mph - N/A   Mostly Cloudy
4:45 PM 72 °F 55 °F 45% 30.01 in 19 mi North 6.7 mph - -   Clear
5:43 PM 68.0 °F 51.8 °F 56% 30.01 in 13.0 mi NNE 9.2 mph - N/A   Mostly Cloudy
6:42 PM 64.4 °F 51.8 °F 64% 30.01 in 13.0 mi ENE 8.1 mph - N/A   Mostly Cloudy
7:43 PM 62.6 °F 50.0 °F 63% 30.08 in 13.0 mi NNW 2.3 mph - N/A   Scattered Clouds
7:45 PM 65 °F 54 °F 59% 30.01 in 2 mi ENE 4.5 mph - -  
8:40 PM 60.8 °F 51.8 °F 72% 30.03 in 10.0 mi North 4.6 mph - N/A   Partly Cloudy
9:45 PM 59.0 °F 51.8 °F 77% 30.04 in 10.0 mi NNW 4.6 mph - N/A   Clear
10:41 PM 57.2 °F 50.0 °F 77% 30.09 in 10.0 mi North 5.8 mph - N/A   Clear
10:50 PM 61 °F 53 °F 68% 30.04 in 2 mi NE 2.2 mph - -